Tracking 17925 objects as of 20-February-2017
HD Live streaming from Space Station
objects crossing your sky now

BREEZE-M DEB (TANK)

Track BREEZE-M DEB (TANK) now!


NORAD ID: 32374
Int'l Code: 2007-058B
Perigee: 297.9 km
Apogee: 34,738.3 km
Inclination: 45.9 °
Period: 612.4 minutes
Semi major axis: 23889 km
RCS: 5.0489 m2 (large)
Launch date: December 9, 2007
Source: Commonwealth of Independent States (former USSR) (CIS)
Launch site: TYURATAM MISSILE AND SPACE COMPLEX (TTMTR)

Note: This is SATELLITE DEBRIS
Your satellite tracking list
Your tracking list is empty





NASA's NSSDC Master Catalog

Two Line Element Set (TLE):
1 32374U 07058B   17049.51605858 +.00000943 +00000-0 +49111-3 0  9993
2 32374 045.8939 217.5167 7208381 230.9096 039.8059 02.35127513077980
Source of the keplerian elements: AFSPC